sat.trackr.live / text

‹ back to catalog

STARLINK-34836

NORAD 65399 · 2025-191W

PAYLOAD ACTIVE UNKNOWN

§ Identity

Operator
Country
US
Launch date
2025-08-30
Launch site
AFWTR
Launch vehicle
Mass (kg)
RCS (m²)

Purposes: comms

External: N2YO · Heavens-Above · Gunter

§ Orbital elements

Epoch: 2026-05-25T03:28:00.651072Z

Period
95.64 min
Inclination
97.4495°
Eccentricity
0.0001783
Mean motion
15.05655596 rev/d
Perigee alt
548.3 km
Apogee alt
550.7 km
Semi-major
6,927.6 km
B*
1.5768e-4
RAAN
16.5075°
Arg perigee
82.4722°
Mean anomaly
277.6707°
Rev number
4,177

§ Raw data

STARLINK-348361 65399U 25191W   26145.14445198  .00002218  00000+0  15768-3 0  99962 65399  97.4495  16.5075 0001783  82.4722 277.6707 15.05655596 41772

JSON: /api/v1/satellites/65399 · /tle

For live sub-satellite position, see the globe view (requires WebGL).

§ Visibility from observer

Set your observer location to see the next 7 days of passes ≥ 10°. The values pass through the URL so the page stays shareable.

No JS? Fill the form by hand. The geolocation button needs JavaScript.